RZO120 LPPD-LPPT

Flight info

Callsign RZO120
Flight time N/A
Altitude 27000
Route BEKUN DCT LENSI/M071F370 T25 GUNTI/N0408F370 DCT LAZET
Aircraft A20N/M-SDE2E3FGHIRWXY/LB1

Departure

Time 2026-05-01 13:29
Airport João Paulo II Airport (LPPD)

Arrival

Time N/A
Airport Lisbon Humberto Delgado Airport (LPPT)
Time Latitude Longitude Altitude Speed Heading
2026-05-01 13:10 37.74844 -25.70997 272 ft 0 kts 23°
2026-05-01 13:21 37.74832 -25.71003 271 ft 3 kts 22°
2026-05-01 13:22 37.74810 -25.71015 271 ft 3 kts 31°
2026-05-01 13:22 37.74792 -25.71033 271 ft 3 kts 58°
2026-05-01 13:22 37.74786 -25.71057 271 ft 3 kts 107°
2026-05-01 13:22 37.74787 -25.71062 271 ft 0 kts 112°
2026-05-01 13:24 37.74786 -25.71059 271 ft 3 kts 112°
2026-05-01 13:24 37.74765 -25.70993 271 ft 13 kts 112°
2026-05-01 13:25 37.74703 -25.70800 271 ft 10 kts 111°
2026-05-01 13:25 37.74671 -25.70699 271 ft 18 kts 113°
2026-05-01 13:25 37.74616 -25.70531 271 ft 21 kts 112°
2026-05-01 13:25 37.74506 -25.70380 261 ft 26 kts 141°
2026-05-01 13:26 37.74356 -25.70208 245 ft 32 kts 128°
2026-05-01 13:26 37.74258 -25.69951 235 ft 34 kts 111°
2026-05-01 13:26 37.74169 -25.69669 229 ft 35 kts 112°
2026-05-01 13:26 37.74071 -25.69363 215 ft 38 kts 111°
2026-05-01 13:27 37.73974 -25.69055 202 ft 35 kts 112°
2026-05-01 13:27 37.73879 -25.68755 186 ft 33 kts 110°
2026-05-01 13:27 37.73753 -25.68475 184 ft 11 kts 44°
2026-05-01 13:28 37.73811 -25.68538 184 ft 0 kts 292°
2026-05-01 13:28 37.73816 -25.68553 184 ft 12 kts 292°
2026-05-01 13:29 37.74282 -25.70056 262 ft 156 kts 290°
2026-05-01 13:29 37.75110 -25.73068 1095 ft 191 kts 279°
2026-05-01 13:30 37.75836 -25.81277 3187 ft 263 kts 290°
2026-05-01 13:31 37.78633 -25.84085 4929 ft 276 kts 355°
2026-05-01 13:31 37.83372 -25.80352 7656 ft 283 kts 63°
2026-05-01 13:32 37.84593 -25.75527 9136 ft 295 kts 82°
2026-05-01 13:33 37.85023 -25.67332 10460 ft 339 kts 86°
2026-05-01 13:33 37.85338 -25.61122 11178 ft 366 kts 86°
2026-05-01 13:34 37.85666 -25.54571 12456 ft 374 kts 86°
2026-05-01 13:34 37.85965 -25.48483 13553 ft 382 kts 86°
2026-05-01 13:35 37.86167 -25.44377 14252 ft 387 kts 86°
2026-05-01 13:35 37.86332 -25.41048 14793 ft 390 kts 86°
2026-05-01 13:35 37.86535 -25.36896 15436 ft 395 kts 86°
2026-05-01 13:36 37.86701 -25.33413 15952 ft 398 kts 87°
2026-05-01 13:36 37.86867 -25.29903 16447 ft 402 kts 86°
2026-05-01 13:36 37.87204 -25.22806 18001 ft 396 kts 86°
2026-05-01 13:37 37.87366 -25.19310 18386 ft 403 kts 87°
2026-05-01 13:37 37.87531 -25.15722 18531 ft 413 kts 87°
2026-05-01 13:37 37.87700 -25.12036 19156 ft 411 kts 86°
2026-05-01 13:37 37.87865 -25.08439 19811 ft 411 kts 87°
2026-05-01 13:38 37.88197 -25.01061 20072 ft 426 kts 87°
2026-05-01 13:38 37.88296 -24.98838 20193 ft 429 kts 87°
2026-05-01 13:38 37.88464 -24.95061 20429 ft 431 kts 87°
2026-05-01 13:39 37.88633 -24.91267 20662 ft 433 kts 87°
2026-05-01 13:39 37.88801 -24.87457 20885 ft 434 kts 87°
2026-05-01 13:39 37.88966 -24.83637 21090 ft 436 kts 87°
2026-05-01 13:39 37.89133 -24.79799 21279 ft 437 kts 87°
2026-05-01 13:40 37.89298 -24.75951 21456 ft 439 kts 87°
2026-05-01 13:40 37.89463 -24.72091 21621 ft 440 kts 87°
2026-05-01 13:40 37.89630 -24.68165 21781 ft 441 kts 87°
2026-05-01 13:40 37.89796 -24.64282 21932 ft 442 kts 87°
2026-05-01 13:41 37.89963 -24.60392 22078 ft 443 kts 87°
2026-05-01 13:41 37.90128 -24.56492 22209 ft 444 kts 87°
2026-05-01 13:41 37.90287 -24.52581 22336 ft 445 kts 87°
2026-05-01 13:41 37.90442 -24.48663 22461 ft 446 kts 87°
2026-05-01 13:42 37.90599 -24.44685 22588 ft 447 kts 87°
2026-05-01 13:42 37.90755 -24.40745 22714 ft 447 kts 87°
2026-05-01 13:42 37.90911 -24.36822 22838 ft 447 kts 87°
2026-05-01 13:42 37.90926 -24.36446 22850 ft 447 kts 87°
2026-05-01 13:44 37.90971 -24.35319 22886 ft 447 kts 87°
2026-05-01 13:44 37.91126 -24.31382 23011 ft 448 kts 87°
2026-05-01 13:44 37.91280 -24.27444 23126 ft 448 kts 87°
2026-05-01 13:44 37.91436 -24.23396 23254 ft 448 kts 87°
2026-05-01 13:45 37.91587 -24.19456 23379 ft 448 kts 87°
2026-05-01 13:45 37.91739 -24.15516 23504 ft 448 kts 87°
2026-05-01 13:45 37.91888 -24.11526 23630 ft 448 kts 88°
2026-05-01 13:45 37.92032 -24.07586 23755 ft 448 kts 88°
2026-05-01 13:46 37.92176 -24.03599 23882 ft 447 kts 88°
2026-05-01 13:46 37.92316 -23.99665 24007 ft 447 kts 88°
2026-05-01 13:46 37.92455 -23.95732 24131 ft 447 kts 88°
2026-05-01 13:46 37.92591 -23.91806 24256 ft 446 kts 88°
2026-05-01 13:47 37.92727 -23.87903 24380 ft 446 kts 88°
2026-05-01 13:47 37.92869 -23.83929 24507 ft 446 kts 88°
2026-05-01 13:47 37.93008 -23.80011 24631 ft 445 kts 88°
2026-05-01 13:47 37.93144 -23.76101 24756 ft 444 kts 88°
2026-05-01 13:48 37.93281 -23.72191 24881 ft 444 kts 88°
2026-05-01 13:48 37.93418 -23.68290 25006 ft 443 kts 88°
2026-05-01 13:48 37.93549 -23.64392 25130 ft 442 kts 88°
2026-05-01 13:48 37.93676 -23.60506 25255 ft 441 kts 88°
2026-05-01 13:49 37.93801 -23.56622 25380 ft 440 kts 88°
2026-05-01 13:49 37.93928 -23.52751 25505 ft 439 kts 88°
2026-05-01 13:49 37.94055 -23.48890 25630 ft 438 kts 88°
2026-05-01 13:49 37.94179 -23.45043 25755 ft 437 kts 88°
2026-05-01 13:50 37.94297 -23.41202 25879 ft 435 kts 88°
2026-05-01 13:50 37.94411 -23.37378 26004 ft 434 kts 88°
2026-05-01 13:50 37.94521 -23.33560 26129 ft 433 kts 88°
2026-05-01 13:50 37.94632 -23.29708 26256 ft 431 kts 88°
2026-05-01 13:51 37.94853 -23.25928 26381 ft 430 kts 82°
2026-05-01 13:51 37.95476 -23.22238 26506 ft 428 kts 73°
2026-05-01 13:51 37.96486 -23.18695 26631 ft 427 kts 66°
2026-05-01 13:51 37.97672 -23.15249 26755 ft 426 kts 66°
2026-05-01 13:52 37.98849 -23.11807 26880 ft 425 kts 66°
2026-05-01 13:52 38.00017 -23.08373 27004 ft 424 kts 67°
2026-05-01 13:52 38.01183 -23.04948 27129 ft 423 kts 66°
2026-05-01 13:52 38.02348 -23.01528 27254 ft 422 kts 66°
2026-05-01 13:53 38.03514 -22.98119 27379 ft 421 kts 66°
2026-05-01 13:53 38.05831 -22.91331 27629 ft 418 kts 67°
2026-05-01 13:53 38.06982 -22.87944 27753 ft 417 kts 67°
2026-05-01 13:54 38.08125 -22.84565 27878 ft 416 kts 67°
2026-05-01 13:54 38.09265 -22.81199 28003 ft 415 kts 67°
2026-05-01 13:54 38.10406 -22.77836 28128 ft 414 kts 67°
2026-05-01 13:54 38.11543 -22.74482 28253 ft 413 kts 67°
2026-05-01 13:55 38.12673 -22.71138 28377 ft 412 kts 67°
2026-05-01 13:55 38.13802 -22.67800 28502 ft 411 kts 67°
2026-05-01 13:55 38.16046 -22.61142 28752 ft 409 kts 67°
2026-05-01 13:56 38.17914 -22.55582 28961 ft 407 kts 67°
2026-05-01 13:56 38.19024 -22.52272 29086 ft 407 kts 67°
2026-05-01 13:56 38.20133 -22.48967 29211 ft 406 kts 67°
2026-05-01 13:57 38.21238 -22.45675 29336 ft 405 kts 67°
2026-05-01 13:57 38.22336 -22.42384 29460 ft 404 kts 67°
2026-05-01 13:57 38.23432 -22.39097 29585 ft 403 kts 67°
2026-05-01 13:57 38.24521 -22.35817 29710 ft 402 kts 67°
2026-05-01 13:58 38.25609 -22.32541 29835 ft 401 kts 67°
2026-05-01 13:58 38.26697 -22.29276 29960 ft 401 kts 67°
2026-05-01 13:58 38.27785 -22.26016 30085 ft 400 kts 67°
2026-05-01 13:58 38.28870 -22.22762 30209 ft 399 kts 67°
2026-05-01 13:59 38.29952 -22.19517 30334 ft 398 kts 67°
2026-05-01 13:59 38.31028 -22.16275 30459 ft 397 kts 67°
2026-05-01 13:59 38.32097 -22.13040 30584 ft 396 kts 67°
2026-05-01 13:59 38.33161 -22.09812 30708 ft 395 kts 67°
2026-05-01 14:00 38.34225 -22.06595 30833 ft 394 kts 67°
2026-05-01 14:00 38.35289 -22.03382 30958 ft 393 kts 67°
2026-05-01 14:00 38.36347 -22.00180 31083 ft 392 kts 67°
2026-05-01 14:00 38.37398 -21.96984 31207 ft 390 kts 67°
2026-05-01 14:01 38.39106 -21.91767 31412 ft 389 kts 68°
2026-05-01 14:01 38.40145 -21.88590 31536 ft 387 kts 67°
2026-05-01 14:01 38.41180 -21.85433 31661 ft 386 kts 67°
2026-05-01 14:02 38.42215 -21.82275 31786 ft 385 kts 68°
2026-05-01 14:02 38.43258 -21.79091 31893 ft 384 kts 67°
2026-05-01 14:02 38.45333 -21.72747 31997 ft 394 kts 67°
2026-05-01 14:03 38.47462 -21.66221 32098 ft 402 kts 68°
2026-05-01 14:03 38.49608 -21.59622 32198 ft 403 kts 68°
2026-05-01 14:04 38.51747 -21.53012 32298 ft 403 kts 68°
2026-05-01 14:04 38.52890 -21.49479 32352 ft 403 kts 68°
2026-05-01 14:05 38.53836 -21.46553 32396 ft 403 kts 68°
2026-05-01 14:05 38.55032 -21.42855 32452 ft 403 kts 68°
2026-05-01 14:06 38.55580 -21.41160 32478 ft 404 kts 68°
2026-05-01 14:07 38.56112 -21.39515 32503 ft 404 kts 68°
2026-05-01 14:08 38.58926 -21.30770 32634 ft 404 kts 68°
2026-05-01 14:09 38.60787 -21.25000 32721 ft 404 kts 68°
2026-05-01 14:09 38.62925 -21.18317 32822 ft 403 kts 68°
2026-05-01 14:10 38.65050 -21.11676 32921 ft 403 kts 68°
2026-05-01 14:10 38.67170 -21.05038 33021 ft 403 kts 68°
2026-05-01 14:11 38.68499 -21.00867 33084 ft 403 kts 68°
2026-05-01 14:11 38.71656 -20.90912 33233 ft 402 kts 68°
2026-05-01 14:12 38.73750 -20.84281 33333 ft 402 kts 68°
2026-05-01 14:12 38.75845 -20.77653 33432 ft 401 kts 68°
2026-05-01 14:13 38.77595 -20.72103 33516 ft 401 kts 68°
2026-05-01 14:13 38.80007 -20.64409 33631 ft 400 kts 68°
2026-05-01 14:14 38.82083 -20.57801 33731 ft 399 kts 68°
2026-05-01 14:14 38.84173 -20.51161 33831 ft 398 kts 68°
2026-05-01 14:15 38.86225 -20.44567 33931 ft 398 kts 68°
2026-05-01 14:15 38.88273 -20.37980 34030 ft 397 kts 68°
2026-05-01 14:16 38.90313 -20.31405 34130 ft 396 kts 68°
2026-05-01 14:16 38.92345 -20.24844 34230 ft 395 kts 68°
2026-05-01 14:17 38.94369 -20.18299 34330 ft 394 kts 69°
2026-05-01 14:17 38.96382 -20.11762 34429 ft 393 kts 69°
2026-05-01 14:18 38.98389 -20.05250 34529 ft 391 kts 69°
2026-05-01 14:18 38.99719 -19.99717 34611 ft 390 kts 80°
2026-05-01 14:19 39.00177 -19.91635 34728 ft 387 kts 89°
2026-05-01 14:19 39.00321 -19.84725 34827 ft 386 kts 89°
2026-05-01 14:20 39.00524 -19.74421 34976 ft 383 kts 89°
2026-05-01 14:21 39.00654 -19.67587 35076 ft 381 kts 89°
2026-05-01 14:21 39.00778 -19.60737 35176 ft 380 kts 89°
2026-05-01 14:22 39.00950 -19.50601 35325 ft 377 kts 89°
2026-05-01 14:22 39.01061 -19.43890 35424 ft 374 kts 89°
2026-05-01 14:23 39.01168 -19.37206 35182 ft 379 kts 89°
2026-05-01 14:23 39.01224 -19.33777 34999 ft 384 kts 89°
2026-05-01 14:23 39.01279 -19.30341 35009 ft 385 kts 89°
2026-05-01 14:24 39.01384 -19.23458 35009 ft 386 kts 89°
2026-05-01 14:24 39.01488 -19.16548 35009 ft 387 kts 89°
2026-05-01 14:25 39.01567 -19.10791 35009 ft 388 kts 89°
2026-05-01 14:25 39.01682 -19.02671 35009 ft 389 kts 89°
2026-05-01 14:26 39.01797 -18.93345 35009 ft 391 kts 89°
2026-05-01 14:27 39.01880 -18.86347 35009 ft 392 kts 89°
2026-05-01 14:27 39.01956 -18.79332 35009 ft 393 kts 89°
2026-05-01 14:28 39.02072 -18.68771 35009 ft 394 kts 89°
2026-05-01 14:28 39.02135 -18.61709 35009 ft 396 kts 90°
2026-05-01 14:29 39.02192 -18.54628 35009 ft 396 kts 89°
2026-05-01 14:30 39.02323 -18.40415 35009 ft 398 kts 89°
2026-05-01 14:31 39.02400 -18.29710 35009 ft 400 kts 90°
2026-05-01 14:31 39.02445 -18.22554 35009 ft 401 kts 90°
2026-05-01 14:32 39.02480 -18.15336 35009 ft 401 kts 90°
2026-05-01 14:32 39.02516 -18.08148 35009 ft 402 kts 90°
2026-05-01 14:33 39.02554 -18.00948 35009 ft 403 kts 90°
2026-05-01 14:33 39.02589 -17.93738 35009 ft 404 kts 90°
2026-05-01 14:34 39.02615 -17.86517 35009 ft 404 kts 90°
2026-05-01 14:34 39.02637 -17.79282 35009 ft 405 kts 90°
2026-05-01 14:35 39.02650 -17.72037 35009 ft 405 kts 90°
2026-05-01 14:35 39.02660 -17.64781 35009 ft 406 kts 90°
2026-05-01 14:36 39.02668 -17.57521 35009 ft 406 kts 90°
2026-05-01 14:36 39.02673 -17.50249 35009 ft 407 kts 90°
2026-05-01 14:37 39.02676 -17.42969 35009 ft 407 kts 90°
2026-05-01 14:37 39.02660 -17.35683 35009 ft 408 kts 90°
2026-05-01 14:38 39.02645 -17.28390 35009 ft 408 kts 90°
2026-05-01 14:38 39.02633 -17.21088 35009 ft 408 kts 90°
2026-05-01 14:39 39.02614 -17.13783 35009 ft 409 kts 90°
2026-05-01 14:39 39.02590 -17.06474 35009 ft 409 kts 90°
2026-05-01 14:40 39.02557 -16.99157 35009 ft 409 kts 90°
2026-05-01 14:40 39.02524 -16.91833 35009 ft 410 kts 90°
2026-05-01 14:41 39.02485 -16.84458 35009 ft 410 kts 90°
2026-05-01 14:41 39.02440 -16.77177 35009 ft 410 kts 91°
2026-05-01 14:42 39.02388 -16.69842 35009 ft 410 kts 91°
2026-05-01 14:42 39.02340 -16.62455 35009 ft 410 kts 91°
2026-05-01 14:43 39.02288 -16.55117 35009 ft 411 kts 91°
2026-05-01 14:43 39.02222 -16.47768 35009 ft 411 kts 91°
2026-05-01 14:44 39.02153 -16.40419 35009 ft 411 kts 91°
2026-05-01 14:44 39.02049 -16.29392 35009 ft 411 kts 91°
2026-05-01 14:45 39.01927 -16.18355 35009 ft 412 kts 91°
2026-05-01 14:46 39.01840 -16.10996 35009 ft 412 kts 91°
2026-05-01 14:46 39.01703 -15.99952 35009 ft 412 kts 91°
2026-05-01 14:47 39.01607 -15.92586 35009 ft 412 kts 91°
2026-05-01 14:48 39.01448 -15.81471 34915 ft 415 kts 91°
2026-05-01 14:48 39.01288 -15.70233 34617 ft 423 kts 91°
2026-05-01 14:49 39.01170 -15.62621 34417 ft 428 kts 91°
2026-05-01 14:49 39.01045 -15.54916 34217 ft 434 kts 91°
2026-05-01 14:50 39.00957 -15.49713 34084 ft 437 kts 91°
2026-05-01 14:50 39.00768 -15.39242 33818 ft 443 kts 91°
2026-05-01 14:51 39.00548 -15.27272 33518 ft 450 kts 91°
2026-05-01 14:52 39.00394 -15.19198 33318 ft 454 kts 91°
2026-05-01 14:52 39.00312 -15.15131 33218 ft 456 kts 92°
2026-05-01 14:52 39.00140 -15.06901 33016 ft 459 kts 92°
2026-05-01 14:53 39.00053 -15.02788 32916 ft 461 kts 92°
2026-05-01 14:53 38.99922 -14.94517 32716 ft 464 kts 90°
2026-05-01 14:54 38.99946 -14.86191 32516 ft 467 kts 90°
2026-05-01 14:54 38.99995 -14.77813 32316 ft 470 kts 90°
2026-05-01 14:55 39.00000 -14.69388 32116 ft 473 kts 90°
2026-05-01 14:55 38.99971 -14.60915 31916 ft 475 kts 90°
2026-05-01 14:56 38.99947 -14.52396 31716 ft 478 kts 90°
2026-05-01 14:56 38.99913 -14.43841 31516 ft 480 kts 90°
2026-05-01 14:57 38.99871 -14.35244 31316 ft 482 kts 90°
2026-05-01 14:57 38.99834 -14.26617 31116 ft 483 kts 90°
2026-05-01 14:57 38.99815 -14.22290 31016 ft 484 kts 90°
2026-05-01 14:58 38.99794 -14.17962 30915 ft 485 kts 90°
2026-05-01 14:58 38.99777 -14.15034 30848 ft 485 kts 90°
2026-05-01 14:58 38.99716 -14.06348 30648 ft 486 kts 91°
2026-05-01 14:59 38.99643 -13.97641 30447 ft 488 kts 91°
2026-05-01 14:59 38.99578 -13.88919 30247 ft 488 kts 91°
2026-05-01 15:00 38.99501 -13.80180 30047 ft 489 kts 91°
2026-05-01 15:00 38.99460 -13.75807 29947 ft 490 kts 91°
2026-05-01 15:01 38.99365 -13.66990 29745 ft 490 kts 91°
2026-05-01 15:01 38.99267 -13.58219 29545 ft 491 kts 91°
2026-05-01 15:02 38.99172 -13.49438 29345 ft 492 kts 91°
2026-05-01 15:02 38.99072 -13.40648 29145 ft 492 kts 91°
2026-05-01 15:02 38.99014 -13.36248 29044 ft 492 kts 91°
2026-05-01 15:03 38.98950 -13.31847 28944 ft 493 kts 91°
2026-05-01 15:03 38.98826 -13.23036 28744 ft 493 kts 91°
2026-05-01 15:04 38.98699 -13.14214 28544 ft 494 kts 91°
2026-05-01 15:04 38.98562 -13.05381 28344 ft 495 kts 91°
2026-05-01 15:04 38.98490 -13.00964 28243 ft 494 kts 91°
2026-05-01 15:05 38.98418 -12.96551 28143 ft 493 kts 91°
2026-05-01 15:05 38.98269 -12.87750 27943 ft 492 kts 91°